Regional Weather Roundup
Issued by NWS Bismarck, ND

Home | Current Version | Previous Version | Text Only | Print | Product List | Glossary On
Versions: 1 2 3 4 5 6 7 8 9 10 11 12 13 14 15 16 17 18 19 20 21 22 23 24 25 26 27 28 29 30 31 32 33 34 35 36 37 38 39 40 41 42 43 44 45 46 47 48 49 50
000
ASUS43 KBIS 271020
RWRBIS

NWR BROADCAST TEXT
NATIONAL WEATHER SERVICE BISMARCK ND
400 AM CST SAT DEC 27 2014

NOTE: "FAIR" INDICATES FEW OR NO CLOUDS BELOW 12,000 FEET WITH NO
SIGNIFICANT WEATHER AND/OR OBSTRUCTIONS TO VISIBILITY.


CITY           SKY/WX    TMP DP  RH WIND       PRES   REMARKS
WILLISTON      CLEAR     11   7  84 CALM      30.07F
MINOT          CLOUDY    20  15  81 SW9       30.04S WCI   9
MINOT AFB      CLOUDY    20  19  98 W10       30.04S WCI   9
BISMARCK       CLOUDY     5   2  87 SE5       30.12F WCI  -4
DICKINSON      CLOUDY    23  16  74 W13       30.04F WCI  11
GARRISON         N/A     20  16  84 W8        30.05F WCI  10
HETTINGER ARPT CLOUDY    18  13  80 W9        30.09S WCI   7
JAMESTOWN      CLOUDY     4   0  83 SW3       30.11F
BEACH          FAIR      18  14  86 W9        30.08S WCI   6
CARRINGTON     CLOUDY     9   9 100 MISG      30.10F
CROSBY         CLOUDY    18  14  86 W8        30.04F WCI   7
HARVEY         CLOUDY    14  12  92 SW7       30.07F WCI   4
HAZEN          CLOUDY    18  14  86 SW9       30.08F WCI   6
LINTON         FAIR      -4  -8  84 E5        30.14F WCI -15
MANDAN         CLOUDY     9   7  92 SW9       30.09F WCI  -5
OAKES            N/A      1   1 100 SW6       30.16S WCI -10
RUGBY          FLURRIES  10   9  92 S3        30.06F
STANLEY        CLOUDY    18  18 100 W8        30.02F WCI   7
TIOGA          CLOUDY    18  18 100 W13       30.06F WCI   4
WATFORD CITY   PTSUNNY   18  16  93 W9        30.05F WCI   6
$$

CITY           SKY/WX    TMP DP  RH WIND       PRES   REMARKS
GRAND FORKS    CLEAR      0  -3  87 CALM      30.18F
GRAND FORKS AF CLEAR     -2  -5  87 CALM      30.17F
DEVILS LAKE    CLOUDY     9   3  78 SW7       30.07F WCI  -3
FARGO          CLEAR      3  -2  79 NW3       30.18F
CANDO          CLOUDY     9   5  85 SW6       30.08F WCI  -1
CAVALIER       FAIR      -2  -6  84 S5        30.14F WCI -12
GWINNER        SUNNY      3   1  92 N7        30.17F WCI  -9
LANGDON        CLOUDY     1  -2  85 SW12      30.06F WCI -15
ROLLA          CLOUDY     7   3  85 SW16      30.03F WCI -11
WALHALLA         N/A     -2  -6  84 CALM      30.13F
$$

CITY           SKY/WX    TMP DP  RH WIND       PRES   REMARKS
ABERDEEN       PTCLDY     8   3  80 CALM      30.20S
MOBRIDGE       CLOUDY     2  -1  88 CALM      30.13F
BUFFALO          N/A     20  16  84 W7        30.01F WCI  11
RAPID CITY     CLOUDY    11   7  84 W5        30.12S WCI   3
GLASGOW        CLEAR     14  10  84 S6        30.04F WCI   5
SIDNEY         CLEAR     12   9  85 CALM      30.10F
WOLF POINT     CLEAR      7   4  87 SW5       30.08F WCI  -2
GLENDIVE       CLEAR     14  10  85 SW9       30.09F WCI   2
MILES CITY     CLEAR     16  13  88 SW10      30.11F WCI   4
BAKER          CLOUDY    21  16  81 NW14      30.09S WCI   8
$$

CITY           SKY/WX    TMP DP  RH WIND       PRES   REMARKS
BILLINGS       PTCLDY    16  11  80 SW15      30.07F WCI   1
GREAT FALLS    CLOUDY    18  12  77 SW15      30.02R WCI   4
REGINA         CLOUDY    10   9  92 SW3       29.99F
ESTEVAN        CLOUDY    18  12  79 W9        30.02F WCI   6
$$




USA.gov is the U.S. government's official web portal to all federal, state and local government web resources and services.